FENGYUN 1C DEB

Satellite information

Favourite Embed

Satellite Type and Status

DEBRISIN ORBIT

Key statistics

Satellite FENGYUN 1C DEB at a glance.

Uptime

9555

Days in orbit

Revolutions

≈ 14.9

Per day

Orbit

SSO

Sun Synchronous Orbit

Inclination

99.4

Latest

Satellite identification and parameters

Extended collection of information and parameters for FENGYUN 1C DEB.

Object identification

Identified? True

Debris? True

Object name: FENGYUN 1C DEB

International designator: 1999-025DFQ

Object number (NORAD): 33679

Object ID (CCSDS): 33679

Country: PEOPLES REPUBLIC OF CHINA (PRC)

Current information (Y/N): Y

RCS size: SMALL

Orbital parameters

Period: 96.362 minutes

Inclination: 99.3763 deg

SMA: 6962.49 km

Apoapsis: 707.135 km

Periapsis: 461.576 km

RAAN: 222.5465 deg

Eccentricy: 0.0176344

Argument of periapsis: 89.683 deg

Mean anomaly: 272.4589 deg

Mean motion: 14.94362109 rev/day

Mean motion (dot): 0.00021038 rev/day2

B* drag term: 0.0014368 1/REarth

Two-line elements (TLE)

Creation date: July 6, 2025, 2:36 p.m.

Reference frame: TEME

Reference center: EARTH

Epoch: July 6, 2025, 1:15 p.m. UTC

TLE line 0: 0 FENGYUN 1C DEB

TLE line 1: 1 33679U 99025DFQ 25187.55261021 .00021038 00000-0 14368-2 0 9996

TLE line 2: 2 33679 99.3763 222.5465 0176344 89.6830 272.4589 14.94362109918714

Live tracking on map

Real-time ground track for satellite FENGYUN 1C DEB.

In-orbit conjunctions

A list of the most updated potential collisions computed for object FENGYUN 1C DEB.

Target Orbit TCA Probability of collision Miss distance Type
CZ-6A DEB LEO 2024-09-18 01:37:22 0.0002064164 127.0 (m) DEBRIS

Associated space launch

Chinese polar orbiting meteorological satellite

FENGYUN 1C DEB was lifted into orbit during the mission ‘Long March 4B | Feng Yun 1C’, on board a Long March 4B space rocket.

The launch took place on May 10, 1999, 1:33 a.m. from Launch Complex 7.

For more information about the launch, click the button.

Launch to space Long March 4B | Feng Yun 1C
Long March 4B | Feng Yun 1C

Agency: N/A

Status: Launch Successful

Launch date: May 10, 1999, 1:33 a.m. UTC

Rocket: Long March 4B

Launch pad: Launch Complex 7

Location: Taiyuan Satellite Launch Center, People's Republic of China

...

Latest news about this satellite

There are no fresh news available about this satellite. Check back as we update our databases every day.


Newsletter sign-up

Weekly statistics, charts and insights to help you stay on top of the space industry.